TimeEDT,TemperatureF,Dew PointF,Humidity,Sea Level PressureIn,VisibilityMPH,Wind Direction,Wind SpeedMPH,Gust SpeedMPH,PrecipitationIn,Events,Conditions,WindDirDegrees,DateUTC
12:52 AM,63.0,62.1,97,29.81,4.0,South,10.4,16.1,0.00,Rain,Light Rain,170,2012-10-20 04:52:00
1:52 AM,63.0,62.1,97,29.79,3.0,Variable,6.9,-,0.00,,Overcast,0,2012-10-20 05:52:00
2:52 AM,64.0,63.0,96,29.78,4.0,SSE,9.2,17.3,N/A,,Overcast,160,2012-10-20 06:52:00
3:52 AM,63.0,63.0,100,29.76,4.0,South,8.1,-,N/A,,Overcast,170,2012-10-20 07:52:00
4:39 AM,64.4,64.4,100,29.76,5.0,South,8.1,-,N/A,,Overcast,170,2012-10-20 08:39:00
4:50 AM,64.4,62.6,94,29.76,4.0,SSE,5.8,-,N/A,,Overcast,160,2012-10-20 08:50:00
4:52 AM,64.0,63.0,96,29.76,4.0,SSE,6.9,-,N/A,,Overcast,160,2012-10-20 08:52:00
5:52 AM,64.9,64.0,97,29.75,5.0,Variable,5.8,-,0.01,Rain,Light Rain,0,2012-10-20 09:52:00
6:45 AM,64.4,62.6,94,29.74,4.0,South,11.5,21.9,0.01,Rain,Rain,170,2012-10-20 10:45:00
6:52 AM,63.0,63.0,100,29.74,4.0,SSE,8.1,19.6,0.03,Rain,Rain,160,2012-10-20 10:52:00
7:10 AM,62.6,62.6,100,29.72,4.0,SSE,11.5,21.9,0.05,Rain,Rain,150,2012-10-20 11:10:00
7:32 AM,64.4,64.4,100,29.66,3.0,SE,10.4,21.9,0.13,Rain,Rain,140,2012-10-20 11:32:00
7:44 AM,64.4,64.4,100,29.70,6.0,SE,9.2,19.6,0.13,Rain,Light Rain,140,2012-10-20 11:44:00
7:52 AM,64.0,63.0,96,29.72,3.0,SSE,8.1,18.4,0.13,,Overcast,160,2012-10-20 11:52:00
8:52 AM,62.1,62.1,100,29.74,2.0,SSW,4.6,-,N/A,,Overcast,210,2012-10-20 12:52:00
9:20 AM,62.6,62.6,100,29.73,3.0,SSW,5.8,-,N/A,,Overcast,210,2012-10-20 13:20:00
9:31 AM,62.6,60.8,94,29.73,4.0,SSW,5.8,-,N/A,,Overcast,200,2012-10-20 13:31:00
9:52 AM,63.0,61.0,93,29.72,8.0,SSW,5.8,-,N/A,,Overcast,210,2012-10-20 13:52:00
10:14 AM,62.6,62.6,100,29.71,5.0,SSW,8.1,-,N/A,,Overcast,210,2012-10-20 14:14:00
10:28 AM,62.6,62.6,100,29.72,1.8,SSW,8.1,-,N/A,,Overcast,210,2012-10-20 14:28:00
10:52 AM,63.0,62.1,97,29.72,3.0,SW,5.8,-,N/A,,Overcast,230,2012-10-20 14:52:00
11:28 AM,62.6,62.6,100,29.70,1.8,SW,5.8,-,0.00,Rain,Light Rain,230,2012-10-20 15:28:00
11:37 AM,64.4,62.6,94,29.70,3.0,Variable,5.8,-,0.00,,Overcast,0,2012-10-20 15:37:00
11:52 AM,64.0,63.0,96,29.71,8.0,SW,8.1,-,0.00,,Overcast,220,2012-10-20 15:52:00
12:16 PM,66.2,64.4,94,29.68,10.0,SW,5.8,-,N/A,,Overcast,220,2012-10-20 16:16:00
12:25 PM,66.2,64.4,94,29.68,10.0,SW,5.8,-,N/A,,Mostly Cloudy,220,2012-10-20 16:25:00
12:50 PM,66.2,62.6,88,29.68,10.0,SW,9.2,16.1,N/A,,Scattered Clouds,220,2012-10-20 16:50:00
12:52 PM,66.0,63.0,90,29.68,10.0,Variable,5.8,16.1,N/A,,Scattered Clouds,0,2012-10-20 16:52:00
12:54 PM,66.2,62.6,88,29.68,10.0,SSW,9.2,16.1,N/A,,Mostly Cloudy,210,2012-10-20 16:54:00
1:15 PM,64.4,62.6,94,29.68,2.5,SW,8.1,-,N/A,,Overcast,220,2012-10-20 17:15:00
1:22 PM,64.4,62.6,94,29.68,0.8,SW,9.2,-,N/A,,Overcast,220,2012-10-20 17:22:00
1:52 PM,63.0,63.0,100,29.68,0.5,SW,6.9,-,N/A,Fog,Fog,220,2012-10-20 17:52:00
2:16 PM,62.6,62.6,100,29.68,2.0,SW,11.5,19.6,N/A,,Overcast,230,2012-10-20 18:16:00
2:25 PM,64.4,62.6,94,29.68,6.0,WSW,9.2,19.6,N/A,,Overcast,240,2012-10-20 18:25:00
2:52 PM,64.0,62.1,93,29.69,9.0,SW,8.1,-,N/A,,Overcast,230,2012-10-20 18:52:00
3:29 PM,62.6,60.8,94,29.68,10.0,SW,8.1,-,N/A,,Scattered Clouds,220,2012-10-20 19:29:00
3:39 PM,62.6,60.8,94,29.68,2.5,SSW,8.1,-,N/A,,Mostly Cloudy,210,2012-10-20 19:39:00
3:43 PM,62.6,60.8,94,29.68,0.8,SW,8.1,-,N/A,,Mist,220,2012-10-20 19:43:00
3:52 PM,62.1,61.0,96,29.69,0.5,SW,10.4,18.4,N/A,Fog,Fog,220,2012-10-20 19:52:00
4:11 PM,62.6,60.8,94,29.69,1.8,SW,8.1,-,N/A,,Overcast,230,2012-10-20 20:11:00
4:14 PM,62.6,60.8,94,29.69,3.0,SW,9.2,16.1,N/A,,Overcast,230,2012-10-20 20:14:00
4:39 PM,62.6,60.8,94,29.70,9.0,SW,9.2,-,N/A,,Overcast,220,2012-10-20 20:39:00
5:19 PM,60.8,59.0,94,29.70,8.0,SW,5.8,-,N/A,,Scattered Clouds,220,2012-10-20 21:19:00
5:52 PM,60.1,57.9,93,29.71,6.0,Variable,4.6,-,N/A,,Clear,0,2012-10-20 21:52:00
6:08 PM,60.8,57.2,88,29.71,6.0,SSW,3.5,-,N/A,,Scattered Clouds,210,2012-10-20 22:08:00
6:17 PM,60.8,57.2,88,29.71,6.0,SW,3.5,-,N/A,,Mostly Cloudy,230,2012-10-20 22:17:00
6:52 PM,59.0,57.9,96,29.73,5.0,SSW,5.8,-,N/A,,Scattered Clouds,210,2012-10-20 22:52:00
7:52 PM,60.1,57.0,90,29.73,10.0,SW,6.9,-,N/A,,Clear,220,2012-10-20 23:52:00
9:52 PM,60.1,57.0,90,29.74,10.0,SW,10.4,-,N/A,,Clear,230,2012-10-21 01:52:00
10:52 PM,60.1,57.0,90,29.75,10.0,WSW,9.2,17.3,N/A,,Clear,240,2012-10-21 02:52:00